Effective Sunday, March 17, 2024, the National Weather Service National Data Buoy Center will discontinue its Dial-A-Buoy Interactive Voice Response system. For more information, see Service Change Notice 24-06 (PDF).

Station SAPF1 - 8726520 - St. Petersburg, Tampa Bay, FL Image indicating link to RSS feed of recent meteorological observations for station SAPF1


Conditions at SAPF1 as of
(12:18 am EST)
0518 GMT on 02/23/2024:
     

Click on the graph icon in the table below to see a time series plot of the last five days of that observation.

5-day plot - Wind Direction Wind Direction (WDIR):WSW ( 250 deg true )
5-day plot - Wind Speed Wind Speed (WSPD): 1.9 kts
5-day plot - Wind Gust Wind Gust (GST): 2.9 kts
5-day plot - Atmospheric Pressure Atmospheric Pressure (PRES):29.99 in
5-day plot - Air Temperature Air Temperature (ATMP): 57.4 °F
5-day plot - Water Temperature Water Temperature (WTMP): 64.2 °F
5-day plot - Wind Speed at 10 Meters Wind Speed at 10 meters (WSPD10M): 1.9 kts
5-day plot - Wind Speed at 20 Meters Wind Speed at 20 meters (WSPD20M): 1.9 kts
5-day plot -  Wind Speed, Wind Gust and Atmospheric Pressure Combined plot of Wind Speed, Gust, and Air Pressure
NOS Water Level Observation Network Water Level
Previous observations
TIME
(EST)
5-day plot - Wind Direction
WDIR
 
5-day plot - Wind Speed
WSPD
kts
5-day plot - Wind Gust
GST
kts
5-day plot - Wave Height
WVHT
ft
5-day plot - Dominant Wave Period
DPD
sec
5-day plot - Average Wave Period
APD
sec
5-day plot - Mean Wave Direction
MWD
 
5-day plot - Atmospheric Pressure
PRES
in
5-day plot - Pressure Tendency
PTDY
in
5-day plot - Air Temperature
ATMP
°F
5-day plot - Water Temperature
WTMP
°F
5-day plot - Dew Point
DEWP
°F
5-day plot - Salinity
SAL
psu
5-day plot - Visibility
VIS
nmi
5-day plot - Tide (above MLLW)
TIDE
ft
2024-02-23 12:12 amWSW 2.9 2.9----29.99- 57.0 64.2----
2024-02-23 12:06 am SW 2.9 2.9----29.99- 56.7 64.2----
2024-02-23 12:00 am SW 2.9 2.9----29.99-0.02 56.8 64.2----
2024-02-22 11:54 pmWSW 2.9 2.9----29.99- 57.4 64.2----
2024-02-22 11:48 pm SW 2.9 2.9----29.99- 57.4 64.2----
2024-02-22 11:42 pm SW 1.9 1.9----29.99- 57.6 64.2----
2024-02-22 11:36 pm SW 1.9 2.9----29.99- 57.2 64.2----
2024-02-22 11:30 pmSSW 2.9 4.1----29.99- 57.7 64.2----
2024-02-22 11:24 pmSSW 4.1 4.1----30.00- 57.4 64.2----
2024-02-22 11:18 pmSSW 2.9 4.1----30.00- 56.7 64.2----
2024-02-22 11:12 pm SW 1.9 1.9----30.00- 56.5 64.4----
2024-02-22 11:06 pmWSW 1.9 2.9----30.01- 56.8 64.4----
2024-02-22 11:00 pm SW 2.9 2.9----30.01-0.02 56.8 64.4----
2024-02-22 10:54 pm SW 1.9 2.9----30.01- 56.7 64.4----
2024-02-22 10:48 pmWSW 2.9 2.9----30.01- 57.0 64.4----
2024-02-22 10:42 pmWSW 1.9 1.9----30.02- 57.2 64.2----
2024-02-22 10:36 pm SW 1.9 2.9----30.02- 57.4 64.2----
2024-02-22 10:30 pmWSW 2.9 2.9----30.02- 57.2 64.2----
2024-02-22 10:24 pmWSW 2.9 2.9----30.02- 57.2 64.2----
2024-02-22 10:18 pm W 2.9 2.9----30.02- 57.6 64.2----
2024-02-22 10:12 pmWSW 2.9 2.9----30.02- 57.7 64.2----
2024-02-22 10:06 pm W 1.9 2.9----30.02- 58.1 64.2----
2024-02-22 10:00 pmWSW 2.9 4.1----30.02-0.01 58.5 64.2----
2024-02-22 09:54 pm W 2.9 4.1----30.02- 58.6 64.2----
2024-02-22 09:48 pm W 2.9 4.1----30.02- 58.8 64.2----
2024-02-22 09:42 pm W 2.9 4.1----30.01- 59.2 64.2----
2024-02-22 09:36 pm W 4.1 4.1----30.01- 59.0 64.2----
2024-02-22 09:30 pm W 2.9 2.9----30.01- 58.3 64.2----
2024-02-22 09:24 pmWSW 2.9 2.9----30.01- 58.1 64.2----
2024-02-22 09:18 pmWSW 1.9 2.9----30.01- 58.1 64.2----
2024-02-22 09:12 pmWSW 1.9 2.9----30.01- 58.3 64.2----
2024-02-22 09:06 pmWSW 2.9 4.1----30.01- 58.6 64.2----
2024-02-22 09:00 pmWSW 2.9 4.1----30.01-0.01 58.8 64.4----
2024-02-22 08:54 pm SW 2.9 4.1----30.01- 59.0 64.4----
2024-02-22 08:48 pm SW 4.1 5.1----30.01- 59.2 64.4----
2024-02-22 08:42 pm SW 4.1 4.1----30.02- 59.2 64.4----
2024-02-22 08:36 pm SW 4.1 4.1----30.02- 59.2 64.4----
2024-02-22 08:30 pm SW 4.1 4.1----30.02- 59.2 64.4----
2024-02-22 08:24 pm SW 2.9 4.1----30.02- 59.4 64.4----
2024-02-22 08:18 pm SW 2.9 2.9----30.02- 59.5 64.4----
2024-02-22 08:12 pm SW 2.9 4.1----30.03- 59.9 64.4----
2024-02-22 08:06 pmWSW 2.9 4.1----30.03- 60.4 64.4----
2024-02-22 08:00 pmWSW 2.9 4.1----30.03+0.02 60.8 64.4----
2024-02-22 07:54 pm SW 2.9 4.1----30.03- 60.8 64.4----
2024-02-22 07:48 pmWSW 2.9 4.1----30.03- 61.2 64.4----
2024-02-22 07:42 pmWSW 2.9 4.1----30.03- 61.3 64.4----
2024-02-22 07:36 pmWSW 2.9 4.1----30.03- 61.5 64.4----
2024-02-22 07:30 pmWSW 4.1 5.1----30.03- 61.7 64.4----
2024-02-22 07:24 pm W 5.1 6.0----30.03- 62.1 64.6----
2024-02-22 07:18 pm W 5.1 6.0----30.04- 62.4 64.6----
2024-02-22 07:12 pm W 4.1 5.1----30.04- 62.4 64.6----
2024-02-22 07:06 pm W 5.1 6.0----30.03- 62.6 64.6----
2024-02-22 07:00 pm W 5.1 6.0----30.03-0.01 62.8 64.8----
2024-02-22 06:54 pm W 5.1 6.0----30.03- 63.0 64.8----
2024-02-22 06:48 pm W 5.1 7.0----30.03- 63.1 64.8----
2024-02-22 06:42 pmWSW 5.1 7.0----30.03- 63.3 64.9----
2024-02-22 06:36 pmWSW 5.1 8.0----30.02- 63.5 65.1----
2024-02-22 06:30 pmWSW 6.0 8.9----30.03-- 65.1----
2024-02-22 06:24 pm W 6.0 8.0----30.03-- 65.3----
2024-02-22 06:18 pm W 6.0 8.9----30.04- 64.4 65.3----
2024-02-22 06:00 pm W 8.0 9.9----30.03-0.03- 65.5----
2024-02-22 05:54 pmWSW 7.0 11.1----30.02-- 65.7----
2024-02-22 05:48 pmWSW 8.0 11.1----30.02- 66.9 65.7----
2024-02-22 05:42 pmWSW 8.9 11.1----30.02- 67.1 65.7----
2024-02-22 05:36 pm SW 8.0 9.9----30.02- 67.3 65.8----
2024-02-22 05:30 pmWSW 8.0 9.9----30.02- 67.6 65.8----
2024-02-22 05:24 pmWSW 8.0 11.1----30.01- 67.6 65.8----
2024-02-22 05:18 pm SW 8.0 8.9----30.01- 68.0 65.8----
2024-02-22 05:12 pm SW 8.0 9.9----30.01- 68.0 65.8----
2024-02-22 05:06 pm SW 8.0 9.9----30.01- 68.0 65.7----
2024-02-22 05:00 pmWSW 8.9 11.1----30.01-0.07 68.2 65.3----
2024-02-22 04:54 pmSSW 7.0 8.9----30.01- 68.9 65.3----
2024-02-22 04:48 pmWSW 8.0 9.9----30.01- 68.7 65.3----
2024-02-22 04:42 pm SW 8.9 11.1----30.01- 68.9 65.1----
2024-02-22 04:36 pm SW 8.0 9.9----30.01- 69.1 65.1----
2024-02-22 04:30 pm SW 8.0 8.9----30.02- 69.3 65.1----
2024-02-22 04:24 pmSSW 8.0 9.9----30.03- 69.3 65.3----
2024-02-22 04:18 pm SW 8.9 11.1----30.03- 69.4 65.5----
2024-02-22 04:12 pmWSW 7.0 8.9----30.04- 69.6 65.7----
2024-02-22 04:06 pmWSW 8.0 9.9----30.04- 69.4 65.7----
2024-02-22 04:00 pmWSW 7.0 9.9----30.04-0.07 69.3 65.5----
2024-02-22 03:54 pmWSW 7.0 11.1----30.04- 69.4 65.3----
2024-02-22 03:48 pm SW 6.0 9.9----30.04- 69.6 65.1----
2024-02-22 03:42 pmSSW 8.0 9.9----30.04- 69.6 65.3----
2024-02-22 03:36 pmWSW 8.0 11.1----30.04- 69.4 65.3----
2024-02-22 03:30 pmWSW 7.0 8.9----30.05- 69.4 65.3----
2024-02-22 03:24 pm SW 6.0 9.9----30.04- 69.8 65.3----
2024-02-22 03:18 pmWSW 6.0 8.9----30.05- 70.0 65.5----
2024-02-22 03:12 pm SW 8.0 11.1----30.05- 69.8 65.8----
2024-02-22 03:06 pm SW 7.0 9.9----30.06- 70.0 66.4----
2024-02-22 03:00 pmWSW 6.0 11.1----30.06-0.08 70.0 66.2----
2024-02-22 02:54 pm SW 7.0 9.9----30.06- 69.8 65.8----
2024-02-22 02:48 pmWSW 6.0 8.9----30.06- 69.8 65.5----
2024-02-22 02:42 pmWSW 8.0 8.9----30.06- 69.4 65.1----
2024-02-22 02:36 pmWSW 5.1 8.9----30.06- 69.6 65.1----
2024-02-22 02:30 pmWSW 4.1 8.0----30.06- 69.4 64.9----
2024-02-22 02:24 pm SW 6.0 9.9----30.06- 69.6 64.9----
2024-02-22 02:18 pmSSW 7.0 8.9----30.07- 69.6 64.9----
2024-02-22 02:12 pmSSW 8.0 8.0----30.08- 69.4 65.1----
2024-02-22 02:06 pm S 4.1 6.0----30.08- 69.3 65.1----
2024-02-22 02:00 pmSSE 5.1 6.0----30.08-0.09 68.5 65.1----
2024-02-22 01:54 pmSSE 5.1 7.0----30.09- 68.9 64.9----
2024-02-22 01:48 pm SE 2.9 4.1----30.09- 69.3 65.1----
2024-02-22 01:42 pm SE 1.9 4.1----30.09- 69.3 65.1----
2024-02-22 01:36 pm SE 1.9 5.1----30.10- 69.6 65.1----
2024-02-22 01:30 pm E 1.9 4.1----30.10- 69.3 65.1----
2024-02-22 01:24 pm NE 1.9 4.1----30.11- 68.7 65.1----
2024-02-22 01:18 pm E 2.9 4.1----30.11- 68.5 64.9----
2024-02-22 01:12 pm E 1.9 4.1----30.10- 68.9 64.8----
2024-02-22 01:06 pm SE 1.9 4.1----30.11- 68.4 64.6----
2024-02-22 01:00 pm S 2.9 2.9----30.11-0.06 68.4 64.4----
2024-02-22 12:54 pmESE 1.9 2.9----30.12- 69.4 64.4----
2024-02-22 12:48 pm SE 1.0 2.9----30.12- 69.1 64.4----
2024-02-22 12:42 pm E 1.0 2.9----30.12- 68.5 64.2----
2024-02-22 12:36 pm E 1.0 2.9----30.13- 67.3 64.2----
2024-02-22 12:30 pm E 1.9 4.1----30.13- 66.6 64.2----
2024-02-22 12:24 pm E 1.9 2.9----30.13- 66.7 64.2----
2024-02-22 12:18 pmENE 1.9 4.1----30.13- 65.8 64.2----
2024-02-22 12:12 pm E 1.9 2.9----30.14- 65.3 64.2----
2024-02-22 12:06 pm E 1.9 4.1----30.14- 65.3 64.4----
2024-02-22 12:00 pm E 1.9 4.1----30.14-0.04 64.9 64.4----
2024-02-22 11:54 am NE 2.9 5.1----30.15- 63.9 64.4----
2024-02-22 11:48 am E 2.9 4.1----30.15- 64.2 64.4----
2024-02-22 11:42 amENE 2.9 5.1----30.15- 63.7 64.4----
2024-02-22 11:36 amENE 2.9 5.1----30.16- 63.1 64.4----
2024-02-22 11:30 amENE 4.1 5.1----30.16- 62.8 64.4----
2024-02-22 11:24 amENE 4.1 6.0----30.16- 62.6 64.2----
2024-02-22 11:18 amENE 4.1 5.1----30.17- 62.2 64.2----
2024-02-22 11:12 am NE 4.1 5.1----30.17- 61.7 64.2----
2024-02-22 11:06 amENE 2.9 5.1----30.17- 61.9 64.0----
2024-02-22 11:00 am NE 4.1 5.1----30.17+0.00 61.2 64.0----
2024-02-22 10:54 amENE 4.1 5.1----30.17- 61.5 64.0----
2024-02-22 10:48 amENE 5.1 6.0----30.17-------
2024-02-22 10:42 amENE 4.1 6.0----30.17-------
2024-02-22 10:36 am E 2.9 6.0----30.17-------
2024-02-22 10:30 amENE 4.1 6.0----30.17- 61.0 63.9----
2024-02-22 10:24 am E 4.1 6.0----30.18- 60.6 63.9----
2024-02-22 10:18 amENE 4.1 7.0----30.18- 60.1 63.9----
2024-02-22 10:12 am E 5.1 7.0----30.18- 59.9 63.9----
2024-02-22 10:06 am E 4.1 6.0----30.18- 59.9 63.9----
2024-02-22 10:00 amENE 5.1 7.0----30.18+0.01 59.4 63.9----
2024-02-22 09:54 am NE 5.1 6.0----30.18- 59.4 63.9----
2024-02-22 09:48 amENE 5.1 6.0----30.18- 59.2 63.9----
2024-02-22 09:42 amENE 4.1 6.0----30.18- 59.5 63.7----
2024-02-22 09:36 amENE 4.1 5.1----30.18- 59.7 63.7----
2024-02-22 09:30 amENE 2.9 5.1----30.18- 59.4 63.7----
2024-02-22 09:24 amENE 4.1 5.1----30.18- 59.2 63.9----
2024-02-22 09:18 am E 4.1 5.1----30.18- 59.2 63.9----
2024-02-22 09:12 am E 4.1 6.0----30.18- 59.5 63.9----
2024-02-22 09:06 amENE 4.1 7.0----30.18- 59.0 63.9----
2024-02-22 09:00 amENE 4.1 6.0----30.18+0.02 59.2 63.9----
2024-02-22 08:54 amENE 4.1 6.0----30.18- 59.0 63.9----
2024-02-22 08:48 am NE 5.1 5.1----30.17- 58.6 63.7----
2024-02-22 08:42 amENE 5.1 5.1----30.17- 58.8 63.7----
2024-02-22 08:36 amENE 4.1 6.0----30.17- 58.6 63.9----
2024-02-22 08:30 am E 4.1 6.0----30.17- 59.0 63.9----
2024-02-22 08:24 am E 4.1 5.1----30.17- 59.0 63.9----
2024-02-22 08:18 amENE 2.9 5.1----30.17- 58.8 64.0----
2024-02-22 08:12 am E 2.9 6.0----30.17- 58.6 64.0----
2024-02-22 08:06 am E 4.1 5.1----30.17- 58.6 64.0----
2024-02-22 08:00 amENE 2.9 5.1----30.17+0.02 58.3 64.0----
2024-02-22 07:54 am E 4.1 5.1----30.17- 57.9 64.0----
2024-02-22 07:48 am E 2.9 5.1----30.16- 57.7 64.0----
2024-02-22 07:42 amENE 2.9 5.1----30.17- 57.4 64.0----
2024-02-22 07:36 am E 2.9 5.1----30.16- 56.8 64.0----
2024-02-22 07:30 amENE 2.9 5.1----30.16- 56.3 64.0----
2024-02-22 07:24 amENE 2.9 6.0----30.17- 56.3 64.0----
2024-02-22 07:18 am NE 4.1 5.1----30.17- 56.1 64.0----
2024-02-22 07:12 am NE 2.9 5.1----30.17- 56.1 64.0----
2024-02-22 07:06 am NE 5.1 7.0----30.17- 56.3 64.0----
2024-02-22 07:00 am NE 5.1 7.0----30.17+0.02 56.3 64.0----
2024-02-22 06:54 amENE 5.1 8.0----30.17- 56.3 64.0----
2024-02-22 06:48 amENE 6.0 7.0----30.17- 56.5 64.0----
2024-02-22 06:42 amENE 5.1 6.0----30.17- 56.3 64.0----
2024-02-22 06:36 amENE 6.0 8.0----30.17- 56.5 64.0----
2024-02-22 06:30 am NE 6.0 7.0----30.17- 55.9 64.0----
2024-02-22 06:24 am NE 5.1 7.0----30.16- 55.9 64.0----
2024-02-22 06:18 am NE 4.1 7.0----30.16- 55.9 64.0----
2024-02-22 06:12 am NE 6.0 7.0----30.16- 56.5 64.0----
2024-02-22 06:06 am NE 5.1 6.0----30.16- 55.9 64.2----
2024-02-22 06:00 am NE 4.1 5.1----30.16+0.00- 64.2----
2024-02-22 05:54 am NE 2.9 6.0----30.16-- 64.2----
2024-02-22 05:48 am NE 4.1 6.0----30.15- 56.5 64.2----
2024-02-22 05:42 am NE 5.1 7.0----30.15- 56.5 64.2----
2024-02-22 05:36 amENE 5.1 7.0----30.15- 56.5 64.2----
2024-02-22 05:30 am NE 5.1 7.0----30.14- 56.5 64.2----
2024-02-22 05:24 am NE 6.0 7.0----30.14- 56.7 64.2----
2024-02-22 05:18 am NE 5.1 7.0----30.14- 56.3 64.2----
2024-02-22 05:12 am NE 4.1 6.0----30.15- 56.1 64.2----
2024-02-22 05:06 am NE 5.1 6.0----30.15- 56.3 64.2----
2024-02-22 05:00 am NE 5.1 6.0----30.15-0.02 56.3 64.2----
2024-02-22 04:54 am NE 4.1 6.0----30.14- 56.7 64.2----
2024-02-22 04:48 amENE 5.1 7.0----30.14- 56.8 64.2----
2024-02-22 04:42 amENE 5.1 8.0----30.14- 56.8 64.2----
2024-02-22 04:36 amENE 6.0 7.0----30.14- 56.8 64.2----
2024-02-22 04:30 amENE 5.1 7.0----30.14- 57.0 64.2----
2024-02-22 04:24 amENE 5.1 8.0----30.14- 57.0 64.2----
2024-02-22 04:18 am NE 5.1 7.0----30.15- 57.0 64.2----
2024-02-22 04:12 am NE 7.0 8.0----30.15- 57.2 64.2----
2024-02-22 04:06 amENE 6.0 8.0----30.15- 57.2 64.2----
2024-02-22 04:00 am NE 7.0 8.9----30.15-0.04 57.2 64.2----
2024-02-22 03:54 am NE 6.0 8.9----30.15- 57.0 64.4----
2024-02-22 03:48 am NE 7.0 8.0----30.15- 57.2 64.4----
2024-02-22 03:42 am NE 5.1 7.0----30.15- 57.2 64.4----
2024-02-22 03:36 am NE 6.0 7.0----30.15- 57.2 64.4----
2024-02-22 03:30 amENE 5.1 7.0----30.15- 57.2 64.4----
2024-02-22 03:24 am NE 5.1 7.0----30.15- 57.2 64.4----
2024-02-22 03:18 amENE 5.1 8.9----30.15- 57.4 64.4----
2024-02-22 03:12 amENE 5.1 7.0----30.15- 57.2 64.4----
2024-02-22 03:06 amENE 5.1 7.0----30.15- 57.0 64.4----
2024-02-22 03:00 amENE 5.1 8.0----30.15-0.05 57.2 64.4----
2024-02-22 02:54 amENE 6.0 7.0----30.16- 57.2 64.6----
2024-02-22 02:48 am E 5.1 8.0----30.16- 57.2 64.6----
2024-02-22 02:42 amENE 5.1 7.0----30.16- 57.2 64.6----
2024-02-22 02:36 amENE 7.0 8.0----30.16- 57.4 64.6----
2024-02-22 02:30 amENE 6.0 8.9----30.16- 57.6 64.4----
2024-02-22 02:24 amENE 5.1 7.0----30.16- 57.2 64.4----
2024-02-22 02:18 am E 4.1 7.0----30.17- 57.0 64.4----
2024-02-22 02:12 amENE 5.1 8.0----30.17- 57.2 64.4----
2024-02-22 02:06 amENE 5.1 8.0----30.17- 57.4 64.4----
2024-02-22 02:00 amENE 7.0 8.9----30.17-0.05 57.6 64.4----
2024-02-22 01:54 amENE 6.0 8.0----30.17- 57.4 64.4----
2024-02-22 01:48 amENE 5.1 7.0----30.17- 57.4 64.4----
2024-02-22 01:42 am E 6.0 7.0----30.17- 57.4 64.4----
2024-02-22 01:36 am E 5.1 7.0----30.18- 57.6 64.4----
2024-02-22 01:30 am E 5.1 7.0----30.18- 57.7 64.4----
2024-02-22 01:24 am E 6.0 8.0----30.19- 57.7 64.4----
2024-02-22 01:18 am E 5.1 7.0----30.19- 57.9 64.4----
2024-02-22 01:12 am E 6.0 8.0----30.19- 57.9 64.4----
2024-02-22 01:06 am E 5.1 8.0----30.19- 57.7 64.4----
2024-02-22 01:00 am E 5.1 8.0----30.19-0.04 57.9 64.4----
2024-02-22 12:54 am E 6.0 8.0----30.19- 58.1 64.4----
2024-02-22 12:48 am E 5.1 8.0----30.19- 58.5 64.4----
2024-02-22 12:42 am E 5.1 8.0----30.19- 58.5 64.4----
2024-02-22 12:36 am E 5.1 8.9----30.19- 58.6 64.4----
2024-02-22 12:30 am E 6.0 8.9----30.19- 58.6 64.4----
2024-02-22 12:24 am E 7.0 11.1----30.19- 58.8 64.4----
2024-02-22 12:18 am E 7.0 9.9----30.19- 59.0 64.4----
2024-02-22 12:12 am E 7.0 9.9----30.20- 59.2 64.4----
2024-02-22 12:06 amENE 8.0 9.9----30.20- 59.4 64.4----
2024-02-22 12:00 am E 7.0 8.9----30.20-0.02 59.5 64.4----
2024-02-21 11:54 pm E 6.0 9.9----30.20- 59.5 64.4----